[[{"header":{"parameterUnit":"m.s-1","parameterCategory":1,"la1":30.2991,"la2":30.254,"lo1":-89.0895,"lo2":-89.0444,"dy":0.0017,"dx":0.0017,"nx":28,"ny":28,"refTime":"2023-08-05T21:00:00:Z","depth":0,"parameterNumber":2,"parameterNumberName":"U-component_of_WINDS"},"data":[0,0,0,0,0,0,0,0,0,0,0,0,0,0,0,0,0,0,0,0,0,0,0,0,0,0,0,0,0,0,0,0,0,0,0,0,0,0,0,0,0,0,0,0,0,0,0,0,0,0,0,0,0,0,0,0,0,0,4.7388,4.7389,0,4.7449,4.745,4.7451,4.7335,4.7331,4.7328,4.7324,4.7389,4.7394,4.7399,0,0,0,0,0,0,0,0,0,0,0,0,0,4.7171,4.7176,4.7388,4.7389,4.739,4.7449,4.745,4.7451,4.7336,4.7331,4.7327,4.7322,4.7387,4.7393,4.74,0,0,0,0,0,0,0,0,0,0,0,0,0,4.7253,4.7178,4.7388,4.7339,4.7336,4.7449,4.745,4.7451,4.7337,4.7331,4.7325,4.732,4.7385,4.7393,4.74,4.7565,0,0,4.7425,4.7428,0,0,0,0,0,0,0,0,4.7248,4.7261,4.7346,4.7343,4.7339,4.7379,4.7397,4.7489,4.7338,4.7337,4.7324,4.7317,4.739,4.7397,4.7421,4.7568,4.757,4.7425,4.743,4.7434,4.7436,0,0,0,0,0,0,0,4.7243,4.7257,4.7412,4.7347,4.7343,4.7314,4.732,4.7414,4.7395,4.7336,4.7328,4.7337,4.7387,4.7414,4.7422,4.7571,4.7425,4.7432,4.7437,4.744,4.785,4.7856,0,0,0,0,0,0,4.7243,4.7253,4.741,4.7414,4.7278,4.7323,4.7329,4.7372,4.7394,4.7391,4.7342,4.7331,4.7403,4.7413,4.7424,4.7614,4.7434,4.7441,4.7446,4.7844,4.7852,4.7858,0,0,0,0,0,0,4.7239,4.7258,4.7408,4.7332,4.7348,4.7333,4.7382,4.7376,4.7403,4.7397,4.7394,4.7372,4.7399,4.7413,4.7529,4.7615,4.7445,4.7452,4.7837,4.7846,4.7855,4.7998,0,0,0,0,0,0,4.7233,4.7257,4.732,4.7334,4.7353,4.7513,4.7387,4.7381,4.7416,4.7403,4.7425,4.7424,4.7396,4.7518,4.7537,4.7622,4.7458,4.7829,4.7841,4.7852,4.7985,4.801,4.8032,0,0,0,0,0,4.7226,4.7359,4.7324,4.7343,4.7431,4.7518,4.7529,4.7493,4.7424,4.7486,4.7482,4.7423,4.7603,4.7531,4.7551,4.7641,4.7824,4.7838,4.7851,4.7975,4.8005,4.8032,0,0,0,0,0,0,4.7357,4.736,4.7321,4.7463,4.7491,4.7498,4.7576,4.7528,4.7577,4.7563,4.7517,4.7523,4.7648,4.7656,4.7576,4.7798,4.7701,4.772,4.7788,4.7817,4.7841,4.7835,4.7465,0,0,0,0,0,4.7403,4.7473,4.7472,4.7597,4.7613,4.7592,4.7629,4.7599,4.7626,4.7638,4.7643,4.7672,4.7734,4.7777,4.7834,4.7986,4.7987,4.8057,4.8081,4.81,4.8116,4.8193,4.8223,4.7903,4.7903,4.7903,0,0,4.7498,4.7508,4.7555,4.7624,4.7642,4.7715,4.7603,4.7686,4.7739,4.7651,4.7759,4.7764,4.7794,4.7927,4.7987,4.7938,4.8205,4.8118,4.8133,4.8139,4.821,4.8241,4.8268,4.7913,4.7911,4.791,0,0,4.7707,4.7723,4.7827,4.7846,4.7874,4.7859,4.7884,4.7899,4.7897,4.8006,4.794,4.8003,4.8112,4.8135,4.8161,4.8375,4.8321,4.8395,4.8517,4.8593,4.8618,4.864,4.8713,4.8741,4.8411,4.8412,4.8412,0,4.7821,4.7928,4.7887,4.7973,4.8004,4.7925,4.8029,4.805,4.8097,4.8119,4.8064,4.8197,4.8212,4.8348,4.84,4.8425,4.845,4.8392,4.8618,4.8639,4.8659,4.8729,4.8757,4.842,4.8419,4.8418,4.8418,0,4.8065,4.8141,4.8221,4.8265,4.8305,4.8401,4.8372,4.8418,4.8384,4.8374,4.8484,4.8498,4.8555,4.8586,4.8555,4.8717,4.8685,4.8625,4.8526,4.8699,4.8763,4.879,4.8433,4.8429,4.8427,4.8425,0,0,4.836,4.8377,4.8408,4.8425,4.8449,4.8506,4.8596,4.8651,4.8689,4.8723,4.8796,4.8889,4.8832,4.8862,4.8832,4.8899,4.9063,4.8829,4.8829,4.887,4.9239,4.9282,4.9313,4.9028,4.9033,4.9037,4.9235,0,4.8565,4.8719,4.8683,4.8835,4.8902,4.8827,4.8906,4.8928,4.8921,4.8977,4.8969,4.9034,4.8956,4.8973,4.9035,4.903,4.9136,4.9015,4.9094,4.9097,4.9087,4.9348,4.9395,4.9581,4.926,4.9264,4.9268,0,4.8825,4.8866,4.9024,4.9033,4.906,4.9131,4.9176,4.9231,4.9254,4.9244,4.9275,4.9232,4.9319,4.9221,4.934,4.9259,4.9289,4.9291,4.9297,4.9301,4.9192,4.9356,4.964,4.9667,4.9307,4.9304,4.9301,0,4.9019,4.9115,4.9221,4.9238,4.9253,4.9304,4.9312,4.933,4.9363,4.9403,4.9424,4.9475,4.9502,4.9541,4.9511,4.9443,4.9634,4.9534,4.9627,4.9628,4.9669,4.9667,4.9959,4.9693,4.9693,4.9692,4.9692,0,4.925,4.935,4.9308,4.9373,4.9481,4.9438,4.9546,4.9546,4.9561,4.9624,4.9564,4.9624,4.9582,4.9639,4.9616,4.9716,4.973,4.9723,4.9715,4.9727,4.9728,4.9745,4.973,4.97,4.9698,4.9697,4.9695,0,4.9486,4.9462,4.9572,4.9576,4.9579,4.9658,4.966,4.972,4.9708,4.9788,4.9804,4.9785,4.9848,4.9822,4.989,4.9874,5.0002,4.9979,4.9993,4.9986,5.0079,5.007,5.0391,5.0429,5.0142,5.0144,5.0147,0,4.9634,4.9708,4.9718,4.9755,4.9767,4.9828,4.9861,4.9822,4.9859,4.9889,4.9944,5.0002,5.0045,5.0149,5.0141,5.0191,5.0167,5.0276,5.0174,5.0183,5.0165,5.016,5.0166,5.0296,5.0299,5.0302,5.0304,0,4.9898,4.9881,4.9931,4.9976,5.0017,5.0051,5.008,5.0114,5.0075,5.012,5.0182,5.0216,5.0283,5.0339,5.0383,5.0391,5.0341,5.0336,5.036,5.0371,5.0375,5.0371,5.0046,5.0329,5.0326,5.0325,5.0323,5.0322,5.0092,5.0152,5.0168,5.0224,5.0241,5.0269,5.0324,5.0317,5.0368,5.0418,5.0392,5.0464,5.0482,5.0536,5.0551,5.0606,5.0563,5.0598,5.0607,5.0615,5.0626,5.0369,5.0614,5.0613,5.0613,5.0612,5.0612,0,5.0349,5.0355,5.0407,5.0448,5.0492,5.044,5.0468,5.0508,5.0572,5.0593,5.0636,5.0706,5.076,5.0755,5.0805,5.085,5.0828,5.0864,5.0859,5.0861,5.0663,5.0636,5.088,5.088,5.088,5.088,5.088,5.088,5.0488,5.0587,5.0572,5.0678,5.0682,5.0751,5.0771,5.0796,5.0812,5.0892,5.0936,5.0932,5.0942,5.0991,5.1038,5.1035,5.1054,5.1099,5.1087,5.0902,5.0875,5.085,5.0824,5.1104,5.1105,5.128,5.1282,5.1283]},{"header":{"parameterUnit":"m.s-1","parameterCategory":1,"la1":30.2991,"la2":30.254,"lo1":-89.0895,"lo2":-89.0444,"dy":0.0017,"dx":0.0017,"nx":28,"ny":28,"refTime":"2023-08-05T21:00:00:Z","depth":0,"parameterNumber":3,"parameterNumberName":"V-component_of_WINDS"},"data":[0,0,0,0,0,0,0,0,0,0,0,0,0,0,0,0,0,0,0,0,0,0,0,0,0,0,0,0,0,0,0,0,0,0,0,0,0,0,0,0,0,0,0,0,0,0,0,0,0,0,0,0,0,0,0,0,0,0,4.0381,4.0382,0,4.0491,4.0492,4.0494,4.0486,4.0484,4.0482,4.0481,4.0589,4.0593,4.0598,0,0,0,0,0,0,0,0,0,0,0,0,0,4.0157,4.0161,4.0381,4.0382,4.0384,4.0491,4.0493,4.0494,4.0486,4.0484,4.0482,4.048,4.0588,4.0593,4.0598,0,0,0,0,0,0,0,0,0,0,0,0,0,4.0259,4.0162,4.0381,4.0393,4.0395,4.0491,4.0493,4.0494,4.0486,4.0484,4.0481,4.0479,4.0586,4.0592,4.0599,4.0688,0,0,4.0619,4.0622,0,0,0,0,0,0,0,0,4.0253,4.0267,4.0389,4.0392,4.0395,4.0472,4.0453,4.0559,4.0487,4.0451,4.0481,4.0478,4.0552,4.0561,4.0587,4.0693,4.0698,4.062,4.0624,4.0626,4.0628,0,0,0,0,0,0,0,4.0246,4.0263,4.0424,4.0391,4.0394,4.039,4.0402,4.0473,4.0514,4.0454,4.0454,4.0467,4.0553,4.0581,4.0589,4.07,4.0619,4.0625,4.0629,4.0632,4.0882,4.0885,0,0,0,0,0,0,4.0237,4.0257,4.0421,4.0428,4.0317,4.0396,4.041,4.045,4.0513,4.052,4.0469,4.0467,4.0571,4.0582,4.0593,4.0701,4.0626,4.0633,4.0636,4.088,4.0883,4.0886,0,0,0,0,0,0,4.0233,4.0252,4.0416,4.0342,4.0363,4.0403,4.0448,4.0453,4.0481,4.0525,4.0531,4.0491,4.0569,4.0584,4.0665,4.0704,4.0635,4.0641,4.0876,4.0881,4.0884,4.0917,0,0,0,0,0,0,4.0226,4.025,4.0286,4.0343,4.0367,4.0488,4.045,4.0457,4.0493,4.0491,4.0547,4.0553,4.0568,4.0655,4.0671,4.0712,4.0647,4.0873,4.0878,4.0883,4.0913,4.0922,4.0929,0,0,0,0,0,4.0218,4.0291,4.0288,4.0308,4.0413,4.049,4.0503,4.0521,4.0496,4.0532,4.0559,4.0552,4.0697,4.0663,4.0681,4.0725,4.0871,4.0877,4.0883,4.0909,4.092,4.0929,0,0,0,0,0,0,4.0236,4.0298,4.0296,4.039,4.0435,4.0489,4.0534,4.0532,4.0584,4.0579,4.0597,4.0609,4.069,4.0716,4.0676,4.0814,4.078,4.079,4.0794,4.0805,4.0813,4.0805,4.0652,0,0,0,0,0,4.0252,4.0311,4.0361,4.0438,4.0461,4.0494,4.0528,4.0537,4.0584,4.0603,4.0636,4.068,4.0736,4.0772,4.0826,4.0916,4.0927,4.0955,4.0963,4.097,4.0978,4.1026,4.1038,4.0906,4.0906,4.0905,0,0,4.0283,4.0324,4.036,4.0443,4.0479,4.0538,4.051,4.0574,4.0617,4.0612,4.069,4.0716,4.0766,4.0851,4.0891,4.0875,4.1017,4.0978,4.0983,4.0987,4.1033,4.1046,4.1057,4.091,4.0909,4.0908,0,0,4.037,4.0408,4.0476,4.0513,4.0568,4.0589,4.0605,4.0659,4.0676,4.0755,4.0752,4.0802,4.0898,4.0934,4.0964,4.1062,4.1056,4.1079,4.1123,4.1169,4.118,4.1189,4.1222,4.1234,4.1087,4.1088,4.1088,0,4.0401,4.0492,4.0511,4.0575,4.061,4.061,4.0677,4.0711,4.078,4.0803,4.0785,4.0905,4.0938,4.1031,4.1055,4.108,4.1097,4.1073,4.1177,4.1186,4.1195,4.1227,4.124,4.109,4.109,4.1089,4.1089,0,4.0527,4.0589,4.0637,4.0705,4.0746,4.0811,4.0837,4.0876,4.0881,4.0903,4.0982,4.1023,4.1084,4.1106,4.1112,4.1199,4.1188,4.1173,4.114,4.121,4.124,4.1252,4.1093,4.1092,4.1092,4.1091,0,0,4.0629,4.0706,4.0723,4.0752,4.0813,4.086,4.0924,4.0985,4.1017,4.1064,4.1117,4.1197,4.1184,4.1218,4.1228,4.1268,4.1341,4.1249,4.125,4.1263,4.1437,4.1446,4.146,4.1338,4.134,4.1342,4.1432,0,4.072,4.0836,4.0854,4.0955,4.1011,4.101,4.1066,4.1107,4.1129,4.1179,4.1202,4.1258,4.1237,4.1258,4.1298,4.1324,4.1376,4.1318,4.1384,4.1387,4.1371,4.1477,4.1487,4.157,4.1444,4.1446,4.1448,0,4.0843,4.0895,4.1001,4.1052,4.1076,4.1126,4.1182,4.123,4.1276,4.1289,4.1327,4.1331,4.1395,4.136,4.1447,4.1407,4.1435,4.1451,4.1455,4.1461,4.1421,4.1483,4.1598,4.1609,4.1467,4.1465,4.1464,0,4.0904,4.1,4.1076,4.1102,4.1163,4.1198,4.1225,4.1269,4.1303,4.1352,4.1374,4.1429,4.1458,4.1499,4.1517,4.149,4.1602,4.1569,4.1612,4.1612,4.1635,4.1633,4.1754,4.1656,4.1656,4.1656,4.1655,0,4.1004,4.1069,4.1104,4.1151,4.1222,4.1241,4.1311,4.1336,4.1375,4.1424,4.1427,4.1473,4.1494,4.1543,4.1557,4.1625,4.1639,4.165,4.1652,4.1649,4.1647,4.1666,4.1661,4.1659,4.1658,4.1658,4.1657,0,4.1084,4.1111,4.1193,4.1245,4.1259,4.1309,4.1352,4.1396,4.1417,4.148,4.1495,4.1528,4.1585,4.1607,4.1677,4.1686,4.1765,4.1764,4.175,4.175,4.1792,4.1787,4.1928,4.1946,4.1838,4.1839,4.1839,0,4.1146,4.1196,4.1252,4.1286,4.1315,4.137,4.1405,4.1425,4.1461,4.1517,4.1553,4.161,4.1657,4.1748,4.1777,4.183,4.1829,4.1874,4.1836,4.1831,4.1827,4.1823,4.1827,4.1881,4.1882,4.1883,4.1884,0,4.1251,4.1261,4.1313,4.137,4.1412,4.1457,4.1501,4.1528,4.1553,4.1594,4.1653,4.169,4.1761,4.1817,4.1871,4.1896,4.1893,4.1896,4.1908,4.1904,4.1893,4.1898,4.1767,4.1892,4.1891,4.1891,4.189,4.189,4.1322,4.1366,4.1412,4.1469,4.1504,4.1545,4.1588,4.1615,4.1665,4.1725,4.1733,4.1796,4.1838,4.1911,4.1939,4.1986,4.1974,4.1993,4.1997,4.2001,4.2003,4.1887,4.1996,4.1996,4.1996,4.1996,4.1996,0,4.1426,4.1456,4.1508,4.1569,4.1614,4.1609,4.1657,4.1693,4.1749,4.179,4.1836,4.1903,4.1957,4.199,4.2043,4.2075,4.2075,4.2088,4.2085,4.2091,4.2012,4.1995,4.2087,4.2087,4.2087,4.2087,4.2087,4.2087,4.1485,4.1558,4.1573,4.1662,4.1691,4.1754,4.1781,4.1817,4.185,4.1925,4.197,4.1992,4.2028,4.2085,4.2133,4.2141,4.216,4.2174,4.2181,4.2106,4.2097,4.2087,4.2072,4.2178,4.2178,4.2255,4.2256,4.2256]}]]